Torna al catalogo

SHUTIANYUXING-02 SHIYAN XING

AttivoScienzaSSO
NORAD 65940·PAYLOAD·🇨🇳 China
Questo nome del satellite non è ancora stato confermato da fonti ufficiali.

Lanciato Oct 11, 2025 da Yellow Sea Launch Area

Loading…

Prossimi Passaggi (prossime 24 ore)

TLE

AggiornatoSource: Space-Track

Epoca: Sep 14, 2026, 11:25 UTC

1 65940U 25226C   26257.47636109  .00005704  00000-0  29124-3 0  9996
2 65940  97.6296 338.0889 0012968 184.2485 175.8640 15.17040108 51219

Traccia SHUTIANYUXING-02 SHIYAN XING in tempo reale con AllMySat

Download on the App Store